星链-31595 (STARLINK-31595 )

导读

STARLINK-31595是美国太空探索技术公司(SpaceX)于2024年3月19日发射的星链(Starlink)星座卫星,归属星链第二代组网。该卫星运行在近地轨道,近地点高度约355公里,轨道倾角43度,配备激光星间链路与相控阵天线,可提供高速低延迟宽带服务,为全球偏远区域及军事、商业场景提供互联网接入,是SpaceX推进全球卫星互联网覆盖的组成部分。

基本信息
目录编号:
59273
目录名称:
STARLINK-31595
国际标识:
2024-050V
轨道中心:
EARTH
卫星名称:
星链-31595
卫星全名:
星链-31595 (STARLINK-31595 )
卫星状态:
在轨 (已飞行821 天)
发射日期:
2024-03-19 UTC
国别 :
美国 (US)
星等 :
--
轨道信息
数据来源 国际轨道数据 AOE轨道数据
星历时间 2026-06-17T09:31:54+0800
1天前
查看轨道信息
2026-06-15T06:00:00+0800
3天前
查看轨道信息
半长轴 6853.345km 6853.396km
偏心率 0.0001299 0.0001375
轨道倾角 53.161° 53.162°
近地点辐角 85.935° 76.473°
升交点赤经 79.396° 89.372°
平近点角 274.180° 328.988°
近地点 474.317km 474.316km
远地点 476.099km 476.202km
周期 94.105分钟 94.106分钟
每日圈数 15.302025 15.301854
详细信息
固有亮度:
5
最大亮度:
0.3
卫星平台:
Starlink v2.0 mini
覆盖范围:
全球
运营商:
太空探索技术公司
运营商所在国:
美国
制造商(研发单位):
太空探索技术公司
制造商所在国:
美国
使用方式:
暂无
卫星简介
星链(Starlink)计划是由太空探索技术公司(SpaceX)提出的一个巨型低轨卫星互联网星座项目,计划在2019年至2024年间在太空搭建由约1.2万颗卫星组成的“星链”网络,其中1584颗将部署在地球上空550千米处的近地轨道,并从2020年开始工作。该卫星仍在工作。
2D轨道图
3D轨道图
轨道高度分析图
轨道倾角分析图
轨道综合分析图
查看轨道综合分析图